CST,Max TemperatureF,Mean TemperatureF,Min TemperatureF,Max Dew PointF,MeanDew PointF,Min DewpointF,Max Humidity, Mean Humidity, Min Humidity, Max Sea Level PressureIn, Mean Sea Level PressureIn, Min Sea Level PressureIn, Max VisibilityMiles, Mean VisibilityMiles, Min VisibilityMiles, Max Wind SpeedMPH, Mean Wind SpeedMPH, Max Gust SpeedMPH,PrecipitationIn, CloudCover, Events, WindDirDegrees
2012-12-1,72,64,56,61,57,52,100,83,66,30.30,30.25,30.23,10,10,10,13,6,16,0.00,1,,92
2012-12-2,75,65,54,62,58,53,100,84,68,30.33,30.26,30.24,10,6,0,9,4,14,0.00,3,Fog,79
2012-12-3,75,66,56,66,59,55,100,81,61,30.29,30.23,30.20,10,5,0,13,6,16,0.00,3,Fog,79
2012-12-4,77,69,60,67,62,59,100,85,69,30.27,30.22,30.17,10,7,1,15,6,18,0.00,2,,103
2012-12-5,75,67,59,64,60,57,100,82,64,30.19,30.13,30.07,10,8,0,10,4,13,0.00,1,Fog,78
2012-12-6,74,66,57,62,59,55,97,79,61,30.06,30.01,29.98,10,10,10,13,6,17,0.00,0,,82
2012-12-7,69,65,60,63,60,57,97,87,76,30.03,29.97,29.94,10,10,8,14,7,17,0.00,7,,81
2012-12-8,77,69,60,65,63,58,93,79,64,30.02,29.98,29.94,10,8,2,15,6,18,0.14,5,Rain,116
2012-12-9,76,67,57,66,61,55,100,85,69,30.09,30.02,29.95,10,5,0,14,5,16,0.00,3,Fog,138
2012-12-10,78,67,56,68,64,52,90,79,68,29.95,29.85,29.78,10,10,10,23,13,30,T,5,Rain,226
2012-12-11,56,50,44,50,41,37,93,80,66,30.15,30.02,29.91,10,10,8,20,11,26,0.08,7,Rain,354
2012-12-12,59,50,41,39,36,32,89,64,39,30.25,30.17,30.10,10,10,10,12,7,18,T,3,Rain,355
2012-12-13,64,52,39,46,40,33,93,68,43,30.33,30.28,30.23,10,10,9,13,6,20,0.00,0,,23
2012-12-14,51,47,42,47,43,41,100,87,74,30.34,30.26,30.17,10,8,1,9,4,15,0.00,6,,60
2012-12-15,69,59,48,63,56,46,93,83,73,30.16,30.09,30.03,10,10,9,14,7,18,0.00,5,,104
2012-12-16,75,68,61,67,65,58,93,83,73,30.01,29.94,29.88,10,9,2,20,7,24,0.02,7,Rain,179
2012-12-17,73,66,59,68,62,57,97,88,78,29.88,29.83,29.77,10,8,1,31,9,40,0.39,6,Rain,222
2012-12-18,67,58,48,57,48,44,93,69,45,30.05,29.99,29.89,10,10,5,10,4,15,0.00,0,,284
2012-12-19,73,59,45,64,54,44,100,75,49,30.10,30.03,29.96,10,8,2,15,6,21,0.00,2,,138
2012-12-20,75,60,45,70,53,29,93,64,35,30.19,29.95,29.83,10,9,2,29,16,40,0.60,4,Rain,249
2012-12-21,57,48,38,29,21,14,54,37,19,30.36,30.28,30.20,10,10,10,23,11,29,0.00,0,,313
2012-12-22,62,47,32,35,27,22,76,50,23,30.43,30.33,30.27,10,10,10,13,4,20,0.00,0,,345
2012-12-23,63,51,39,55,43,35,92,72,51,30.27,30.18,30.06,10,10,10,10,4,13,0.00,3,,95
2012-12-24,73,68,62,65,63,55,100,87,73,30.03,29.93,29.88,10,7,1,26,10,37,0.30,7,Rain,215
2012-12-25,74,66,57,66,63,52,100,87,73,29.91,29.80,29.60,10,5,0,30,13,40,0.26,6,Fog-Rain,152
2012-12-26,60,49,38,52,35,31,80,65,50,30.14,29.96,29.69,10,10,10,26,13,36,0.00,2,,309
2012-12-27,49,43,36,38,33,30,86,70,53,30.20,30.13,30.09,10,10,8,17,5,20,0.00,4,,338
2012-12-28,69,56,42,66,53,36,93,83,72,30.09,29.91,29.75,10,9,4,26,10,35,0.30,5,Rain,117
2012-12-29,65,51,37,63,40,29,90,68,46,30.37,30.09,29.78,10,10,10,23,14,30,0.00,5,,325
2012-12-30,54,43,31,32,27,23,82,59,35,30.50,30.42,30.37,10,10,10,15,7,21,0.00,0,,7
2012-12-31,62,51,40,55,43,30,93,77,60,30.36,30.27,30.12,10,10,7,10,5,14,0.00,5,,49